Tracking 19242 objects as of 16-Aug-2018
HD Live streaming from Space Station
objects crossing your sky now

FENGYUN 1C DEB

Track FENGYUN 1C DEB now!
10-day predictions


NORAD ID: 36679
Int'l Code: 1999-025DYZ
Perigee: 831.3 km
Apogee: 965.5 km
Inclination: 99.0 °
Period: 102.8 minutes
Semi major axis: 7269 km
RCS: 0.0078 m2 (small)
Launch date: May 10, 1999
Source: People's Republic of China (PRC)
Launch site: Taiyaun Space Center, China (TSC)

Note: This is SATELLITE DEBRIS
aabbcc
Your satellite tracking list
Your tracking list is empty




NASA's NSSDC Master Catalog

Two Line Element Set (TLE):
1 36679U 99025DYZ 18222.86520917  .00000252  00000-0  19185-3 0  9995
2 36679  98.9996 254.2694 0092272 351.8610   8.1053 14.00728395527708
Source of the keplerian elements: AFSPC